Back to catalog

STARLINK-32618

AliveCommunicationsVLEO
NORAD 62045·PAYLOAD·🇺🇸 United States

Launched Nov 21, 2024 from Cape Canaveral Space Force Station

Loading…

Next Passes (next 24 hours)

TLE

FreshSource: CelesTrak SupGP

Epoch: Sep 14, 2026, 21:19 UTC

1 62045C 24216P   26257.88868056  .00020529  00000+0  74382-3 0  2574
2 62045  42.9997 267.9699 0001497 267.2181 300.6212 15.27557144    11

Track STARLINK-32618 in real time with AllMySat

Download on the App Store